Hourly Data Report for October 17, 2014

All times are specified in Local Standard Time (LST). Add 1 hour to adjust for Daylight Saving Time where and when it is observed.

SAINT JOHN A
NEW BRUNSWICK

45°18'58.000" N
65°53'24.000" W
108.80 m
8104901
71609
YSJ

Download Data

Hourly Data (October 2014)
Hourly Data Report for October 17, 2014
Temp Definition
°C
Dew Point Temp Definition
°C
Rel Hum Definition
%
Wind Dir Definition
10's deg

Wind Spd Definition
km/h
Visibility Definition
km
Stn Press Definition
kPa
Hmdx Definition


Wind Chill Definition


Weather Definition


TIME
00:00 Legend Double Dagger 18.2 17.9 98 11 16 16.1 100.11     LegendNANA
01:00 Legend Double Dagger 18.1 17.9 99 12 18 12.9 100.06     LegendNANA
02:00 Legend Double Dagger 17.9 17.6 98 12 18 16.1 100.00     Cloudy
03:00 Legend Double Dagger 17.8 17.6 99 11 22 24.1 99.85     LegendNANA
04:00 Legend Double Dagger 18.0 17.7 98 12 22 24.1 99.75     LegendNANA
05:00 Legend Double Dagger 18.0 17.7 98 12 25 24.1 99.68     Cloudy
06:00 Legend Double Dagger 18.0 17.5 97 12 18 24.1 99.59     LegendNANA
07:00 Legend Double Dagger 17.8 17.3 97 12 23 19.3 99.52     Rain
08:00 Legend Double Dagger 18.2 17.4 95 13 25 19.3 99.38     Rain
09:00 Legend Double Dagger 18.0 18.0 100 14 27 4.0 99.25     Moderate Rain,Fog
10:00 Legend Double Dagger 18.4 18.4 100 13 36 4.8 99.08     Moderate Rain,Fog
11:00 Legend Double Dagger 17.7 17.7 100 15 34 1.6 98.99     Moderate Rain,Fog
12:00 Legend Double Dagger 15.5 15.2 98 21 32 4.8 98.95     Moderate Rain,Fog
13:00 Legend Double Dagger 14.7 14.7 100 21 33 12.9 98.96     Moderate Rain
14:00 Legend Double Dagger 14.6 14.6 100 21 33 4.0 98.94     Rain,Fog
15:00 Legend Double Dagger 14.5 14.4 99 22 30 9.7 98.99     Rain,Fog
16:00 Legend Double Dagger 14.3 14.3 100 21 33 8.1 99.01     Fog
17:00 Legend Double Dagger 14.2 14.2 100 21 31 9.7 99.07     Fog
18:00 Legend Double Dagger 14.3 13.8 97 21 35 9.7 99.13     Fog
19:00 Legend Double Dagger 14.2 13.9 98 21 23 12.9 99.20     LegendNANA
20:00 Legend Double Dagger 14.1 14.0 99 21 16 12.9 99.25     Cloudy
21:00 Legend Double Dagger 13.9 13.9 100 20 22 4.8 99.28     Fog
22:00 Legend Double Dagger 13.8 13.8 100 20 18 3.2 99.28     Fog
23:00 Legend Double Dagger 13.8 13.7 99 21 21 4.8 99.30     Fog

Notes on Data Quality.

Legend

  • E = Estimated
  • M = Missing
  • NA = Not Available
  • ‡ = Partner data that is not subject to review by the National Climate Archives
Date modified: